Location: Paderno d�Adda
(45.6667°N, 9.4333°E)
Time: 14:22:13
(UTC+00:00)

CSL-04 Debris - Pass Details

Date: 19 September 2020
Orbit: 827 x 847 km, 98.9° (Epoch: 29 October)

Event Time Altitude Azimuth Distance (km) Brightness Sun altitude
Rises 17:59:46 0° 158° (SSE) 3,358 7.0 -6.9°
Reaches altitude 10° 18:02:07 10° 156° (SSE) 2,427 6.3 -7.3°
Maximum altitude 18:07:28 74° 73° (ENE) 865 4.1 -8.2°
Drops below altitude 10° 18:12:51 10° 349° (N) 2,442 6.9 -9.1°
Sets 18:15:13 0° 348° (NNW) 3,381 7.7 -9.5°
